Time,TemperatureF,DewpointF,PressureIn,WindDirection,WindDirectionDegrees,WindSpeedMPH,WindSpeedGustMPH,Humidity,HourlyPrecipIn,Conditions,Clouds,dailyrainin,SolarRadiationWatts/m^2,SoftwareType,DateUTC
2017-01-22 00:04:00,22.0,19.0,29.63,SE,129,4.0,8.0,88,-99.99,,,-99.99,0.000000,,2017-01-22 08:04:00,
2017-01-22 00:13:00,22.0,19.0,29.63,SE,129,6.0,8.0,87,-99.99,,,-99.99,0.000000,,2017-01-22 08:13:00,
2017-01-22 00:36:00,22.0,19.0,29.63,SE,129,3.0,7.0,88,-99.99,,,-99.99,0.000000,,2017-01-22 08:36:00,
2017-01-22 01:05:00,22.0,19.0,29.64,SE,129,7.0,9.0,87,-99.99,,,-99.99,0.000000,,2017-01-22 09:05:00,
2017-01-22 01:14:00,22.0,19.0,29.64,SE,129,6.0,-999.0,88,-99.99,,,-99.99,,,2017-01-22 09:14:00,
2017-01-22 02:07:00,21.0,18.0,29.64,SE,129,6.0,9.0,88,-99.99,,,-99.99,0.000000,,2017-01-22 10:07:00,
2017-01-22 03:03:00,21.0,19.0,29.65,SE,130,7.0,12.0,90,-99.99,,,-99.99,0.000000,,2017-01-22 11:03:00,
2017-01-22 04:06:00,21.0,18.0,29.65,SE,134,5.0,12.0,89,-99.99,,,-99.99,0.000000,,2017-01-22 12:06:00,
2017-01-22 04:13:00,21.0,18.0,29.65,ESE,123,7.0,15.0,89,-99.99,,,-99.99,0.000000,,2017-01-22 12:13:00,
2017-01-22 05:06:00,22.0,19.0,29.64,SE,135,6.0,10.0,88,-99.99,,,-99.99,0.000000,,2017-01-22 13:06:00,
2017-01-22 05:13:00,22.0,19.0,29.64,SE,137,11.0,15.0,87,-99.99,,,-99.99,0.000000,,2017-01-22 13:13:00,
2017-01-22 05:23:00,22.0,19.0,29.63,SE,134,7.0,14.0,87,-99.99,,,-99.99,0.000000,,2017-01-22 13:23:00,
2017-01-22 05:37:00,22.0,19.0,29.63,SE,135,5.0,-999.0,87,-99.99,,,-99.99,0.000000,,2017-01-22 13:37:00,
2017-01-22 06:04:00,22.0,19.0,29.63,SE,139,8.0,16.0,88,-99.99,,,-99.99,0.000000,,2017-01-22 14:04:00,
2017-01-22 06:12:00,21.0,18.0,29.64,SE,131,7.0,19.0,89,-99.99,,,-99.99,0.000000,,2017-01-22 14:12:00,
2017-01-22 07:05:00,21.0,18.0,29.64,SE,138,9.0,15.0,88,-99.99,,,-99.99,0.000000,,2017-01-22 15:05:00,
2017-01-22 07:13:00,21.0,18.0,29.64,SE,136,5.0,12.0,88,-99.99,,,-99.99,0.000000,,2017-01-22 15:13:00,
2017-01-22 08:06:00,21.0,18.0,29.63,SE,133,9.0,16.0,87,-99.99,,,-99.99,5.000000,,2017-01-22 16:06:00,
2017-01-22 10:07:00,21.0,18.0,29.62,ESE,118,13.0,23.0,88,-99.99,,,-99.99,278.000000,,2017-01-22 18:07:00,
2017-01-22 10:13:00,21.0,18.0,29.62,ESE,118,13.0,23.0,88,-99.99,,,-99.99,278.000000,,2017-01-22 18:13:00,